Bartow, FL

1:27 PM EST on January 24, 2017 (GMT -0500)
Bartow Municipal

Weather History for KBOW - July, 2014

Change the Weather History Date:

Friday, July 25, 2014

  Actual Average Record
Temperature  
Mean Temperature 81 °F -  
Max Temperature 89 °F 92 °F 98 °F (1940)
Min Temperature 73 °F 72 °F 67 °F (1971)
Cooling Degree Days 16    
Growing Degree Days 31 (Base 50)    
Moisture  
Dew Point 76 °F    
Average Humidity 92    
Maximum Humidity 100    
Minimum Humidity 55    
Precipitation  
Precipitation 0.00 in - - ()
Sea Level Pressure  
Sea Level Pressure 30.07 in    
Wind  
Wind Speed 2 mph (SSE)    
Max Wind Speed 23 mph    
Max Gust Speed -    
Visibility 10 miles    
Events Rain , Thunderstorm    
Averages and records for this station are not official NWS values.
T = Trace of Precipitation, MM = Missing Value Source: NWS Daily Summary

Daily Weather History Graph

Daily Weather History Graph

Search for Another Location

Airport or City:

Trip Planner

Search our weather history database for the weather conditions in past years. The results will help you decide how hot, cold, wet, or windy it might be!

Date:

Astronomy

Jul. 25, 2014 Rise Set
Actual Time 6:45 AM EDT 8:21 PM EDT
Civil Twilight 6:20 AM EDT 8:46 PM EDT
Nautical Twilight 5:49 AM EDT 9:17 PM EDT
Astronomical Twilight 5:17 AM EDT 9:49 PM EDT
Moon 5:41 AM EDT (7/25) 7:21 PM EDT (7/25)
Length of Visible Light 14h 26m
Length of Day
13h 35m
Waning Crescent, 1% of the Moon is Illuminated
Jul 25
Waning Crescent
Jul 26
New
Aug 3
First Quarter
Aug 10
Full
Aug 17
Last Quarter

Hourly Weather History & Observations

Time (EDT) Temp. Heat Index Dew Point Humidity Pressure Visibility Wind Dir Wind Speed Gust Speed Precip Events Conditions
12:15 AM 73.4 °F - 73.4 °F 100% 30.06 in 10.0 mi Calm Calm - N/A   Clear
12:35 AM 73.4 °F - 73.4 °F 100% 30.06 in 10.0 mi Calm Calm - N/A   Clear
12:55 AM 73.4 °F - 73.4 °F 100% 30.06 in 10.0 mi Calm Calm - N/A   Clear
1:15 AM 73.4 °F - 73.4 °F 100% 30.06 in 10.0 mi Calm Calm - N/A   Clear
1:55 AM 73.4 °F - 73.4 °F 100% 30.06 in 10.0 mi Calm Calm - N/A   Clear
2:15 AM 73.4 °F - - N/A% 30.05 in 10.0 mi Calm Calm - N/A   Clear
2:35 AM 73.4 °F - - N/A% 30.06 in 10.0 mi Calm Calm - N/A   Clear
2:55 AM 73.4 °F - - N/A% 30.06 in 10.0 mi Calm Calm - N/A   Clear
3:15 AM 73.4 °F - - N/A% 30.06 in 10.0 mi Calm Calm - N/A   Clear
3:35 AM 73.4 °F - - N/A% 30.06 in 10.0 mi Calm Calm - N/A   Clear
3:55 AM 73.4 °F - - N/A% 30.06 in 10.0 mi Calm Calm - N/A   Clear
4:15 AM 73.4 °F - - N/A% 30.05 in 10.0 mi Calm Calm - N/A   Clear
4:35 AM 73.4 °F - - N/A% 30.06 in 10.0 mi Calm Calm - N/A   Clear
4:55 AM 73.4 °F - - N/A% 30.06 in 10.0 mi Calm Calm - N/A   Clear
5:15 AM 73.4 °F - - N/A% 30.06 in 10.0 mi Calm Calm - N/A   Clear
5:35 AM 73.4 °F - - N/A% 30.07 in 10.0 mi Calm Calm - N/A   Clear
5:55 AM 73.4 °F - - N/A% 30.08 in 10.0 mi Calm Calm - N/A   Partly Cloudy
6:15 AM 73.4 °F - - N/A% 30.08 in 10.0 mi Calm Calm - N/A   Clear
6:35 AM 73.4 °F - - N/A% 30.08 in 10.0 mi Calm Calm - N/A   Clear
6:55 AM 73.4 °F - - N/A% 30.08 in 10.0 mi Calm Calm - N/A   Clear
7:15 AM 73.4 °F - - N/A% 30.08 in 10.0 mi Calm Calm - N/A   Clear
7:55 AM 75.2 °F - - N/A% 30.09 in 10.0 mi Calm Calm - N/A   Partly Cloudy
8:55 AM 80.6 °F 88.1 °F 78.8 °F 94% 30.11 in 10.0 mi Calm Calm - N/A   Partly Cloudy
9:55 AM 82.4 °F 89.5 °F 75.2 °F 79% 30.11 in 10.0 mi South 5.8 mph - N/A   Partly Cloudy
10:47 AM 86.0 °F 93.4 °F 73.4 °F 66% 30.11 in 10.0 mi SW 5.8 mph - N/A   Partly Cloudy
11:47 AM 87.8 °F 95.6 °F 73.4 °F 62% 30.11 in 10.0 mi SW 5.8 mph - N/A   Scattered Clouds
1:50 PM 89.6 °F 96.2 °F 71.6 °F 55% 30.07 in 10.0 mi South 8.1 mph - N/A   Mostly Cloudy
2:55 PM 78.8 °F - 73.4 °F 83% 30.09 in 4.0 mi NW 23.0 mph - N/A Rain Heavy Rain
3:47 PM 75.2 °F - - N/A% 30.06 in 3.0 mi WNW 9.2 mph - N/A Rain Heavy Rain
4:47 PM 78.8 °F - 78.8 °F 100% 30.03 in 10.0 mi Variable 3.5 mph - N/A   Mostly Cloudy
5:35 PM 80.6 °F 88.1 °F 78.8 °F 94% 30.05 in 10.0 mi Calm Calm - N/A   Clear
5:55 PM 80.6 °F 88.1 °F 78.8 °F 94% 30.04 in 10.0 mi Calm Calm - N/A Thunderstorm Partly Cloudy
6:15 PM 82.4 °F 90.9 °F 77.0 °F 84% 30.07 in 10.0 mi SE 5.8 mph - N/A Thunderstorm Clear
6:35 PM 80.6 °F 87.1 °F 77.0 °F 89% 30.08 in 10.0 mi SE 5.8 mph - N/A Thunderstorm Scattered Clouds
6:55 PM 80.6 °F 87.1 °F 77.0 °F 89% 30.07 in 10.0 mi SE 4.6 mph - N/A Thunderstorm Partly Cloudy
7:15 PM 80.6 °F 87.1 °F 77.0 °F 89% 30.08 in 10.0 mi Calm Calm - N/A Thunderstorm Clear
7:35 PM 80.6 °F 87.1 °F 77.0 °F 89% 30.09 in 10.0 mi Calm Calm - N/A Thunderstorm Partly Cloudy
7:55 PM 80.6 °F 86.2 °F 75.2 °F 84% 30.09 in 10.0 mi Calm Calm - N/A   Partly Cloudy
8:15 PM 78.8 °F - 78.8 °F 100% 30.09 in 10.0 mi SE 4.6 mph - N/A   Clear
8:35 PM 78.8 °F - 78.8 °F 100% 30.08 in 8.0 mi ESE 4.6 mph - N/A Rain Light Rain
8:55 PM 78.8 °F - 78.8 °F 100% 30.08 in 10.0 mi East 4.6 mph - N/A Rain Light Rain
9:15 PM 78.8 °F - 78.8 °F 100% 30.07 in 10.0 mi SSE 6.9 mph - N/A   Clear
9:35 PM 78.8 °F - 78.8 °F 100% 30.07 in 10.0 mi SE 3.5 mph - N/A   Clear
9:55 PM 78.8 °F - 78.8 °F 100% 30.08 in 10.0 mi SSE 4.6 mph - N/A   Clear
10:15 PM 77.0 °F - 77.0 °F 100% 30.08 in 10.0 mi SSE 3.5 mph - N/A   Clear
10:35 PM 77.0 °F - 77.0 °F 100% 30.08 in 10.0 mi South 3.5 mph - N/A   Clear
10:55 PM 77.0 °F - 77.0 °F 100% 30.09 in 10.0 mi Calm Calm - N/A   Clear
11:15 PM 77.0 °F - 77.0 °F 100% 30.09 in 10.0 mi Calm Calm - N/A   Clear
11:35 PM 75.2 °F - - N/A% 30.09 in 10.0 mi ESE 3.5 mph - N/A   Clear
11:55 PM 75.2 °F - - N/A% 30.09 in 10.0 mi SE 5.8 mph - N/A   Clear